EKA5012 CYPC-CYZF

Flight info

Callsign EKA5012
Flight time N/A
Altitude 25000
Route ULORA DCT ADSAL DCT FENGO DCT AGBOT
Aircraft L188/M-SDE2E3FGRY/H

Departure

Time 2026-04-21 22:21
Airport Paulatuk (Nora Aliqatchialuk Ruben) Airport (CYPC)

Arrival

Time N/A
Airport Yellowknife International Airport (CYZF)
Time Latitude Longitude Altitude Speed Heading
2026-04-21 22:17 69.35584 -124.07851 25 ft 0 kts 249°
2026-04-21 22:20 69.35582 -124.07861 25 ft 5 kts 239°
2026-04-21 22:20 69.35575 -124.08053 25 ft 8 kts 321°
2026-04-21 22:20 69.35775 -124.07878 25 ft 72 kts 20°
2026-04-21 22:20 69.36468 -124.07159 243 ft 122 kts 20°
2026-04-21 22:21 69.37212 -124.06384 1028 ft 114 kts 25°
2026-04-21 22:21 69.37719 -124.04737 1675 ft 110 kts 80°
2026-04-21 22:21 69.37572 -124.02794 2369 ft 100 kts 135°
2026-04-21 22:21 69.37004 -124.01973 3050 ft 88 kts 172°
2026-04-21 22:22 69.36374 -124.01520 3575 ft 102 kts 174°
2026-04-21 22:22 69.35632 -124.01021 4116 ft 121 kts 172°
2026-04-21 22:22 69.34711 -124.00409 4648 ft 154 kts 171°
2026-04-21 22:22 69.33515 -123.99607 5182 ft 201 kts 169°
2026-04-21 22:23 69.32002 -123.98276 5683 ft 254 kts 161°
2026-04-21 22:23 69.30287 -123.96116 6378 ft 286 kts 154°
2026-04-21 22:23 69.28461 -123.93329 7205 ft 306 kts 150°
2026-04-21 22:23 69.26594 -123.90177 8121 ft 318 kts 148°
2026-04-21 22:24 69.24705 -123.86810 9026 ft 326 kts 147°
2026-04-21 22:24 69.22788 -123.83295 9933 ft 330 kts 146°
2026-04-21 22:24 69.20868 -123.79723 10861 ft 333 kts 145°
2026-04-21 22:24 69.18931 -123.76093 11790 ft 335 kts 144°
2026-04-21 22:25 69.17018 -123.72494 12704 ft 337 kts 144°
2026-04-21 22:25 69.15068 -123.68818 13628 ft 338 kts 144°
2026-04-21 22:25 69.13108 -123.65126 14554 ft 340 kts 144°
2026-04-21 22:25 69.11138 -123.61418 15479 ft 342 kts 144°
2026-04-21 22:26 69.09156 -123.57696 16405 ft 344 kts 144°
2026-04-21 22:26 69.07146 -123.53928 17104 ft 355 kts 144°
2026-04-21 22:26 69.05063 -123.50031 17614 ft 365 kts 145°
2026-04-21 22:26 69.02928 -123.46048 18119 ft 372 kts 145°
2026-04-21 22:27 69.00762 -123.42018 18622 ft 376 kts 145°
2026-04-21 22:27 68.98568 -123.37950 19125 ft 379 kts 146°
2026-04-21 22:27 68.96356 -123.33862 19627 ft 382 kts 146°
2026-04-21 22:27 68.94157 -123.29808 20123 ft 384 kts 146°
2026-04-21 22:28 68.91926 -123.25705 20624 ft 386 kts 146°
2026-04-21 22:28 68.89679 -123.21585 21125 ft 387 kts 146°
2026-04-21 22:28 68.87423 -123.17461 21626 ft 389 kts 147°
2026-04-21 22:28 68.85159 -123.13329 22126 ft 390 kts 147°
2026-04-21 22:29 68.82886 -123.09194 22626 ft 392 kts 147°
2026-04-21 22:29 68.80607 -123.05058 23126 ft 393 kts 147°
2026-04-21 22:29 68.78316 -123.00911 23627 ft 393 kts 147°
2026-04-21 22:29 68.76023 -122.96771 24127 ft 394 kts 148°
2026-04-21 22:30 68.73722 -122.92626 24627 ft 395 kts 148°
2026-04-21 22:30 68.71394 -122.88446 24880 ft 404 kts 148°
2026-04-21 22:30 68.69009 -122.84177 24962 ft 415 kts 148°
2026-04-21 22:30 68.66558 -122.79800 24978 ft 424 kts 148°
2026-04-21 22:31 68.64061 -122.75354 24978 ft 431 kts 148°
2026-04-21 22:31 68.61564 -122.70916 24975 ft 435 kts 148°
2026-04-21 22:31 68.59015 -122.66397 24971 ft 438 kts 148°
2026-04-21 22:31 68.56456 -122.61871 24968 ft 439 kts 148°
2026-04-21 22:32 68.53881 -122.57329 24966 ft 441 kts 148°
2026-04-21 22:32 68.51299 -122.52786 24964 ft 442 kts 149°
2026-04-21 22:32 68.48711 -122.48245 24962 ft 442 kts 149°
2026-04-21 22:32 68.46119 -122.43707 24960 ft 443 kts 149°
2026-04-21 22:33 68.43516 -122.39166 24958 ft 443 kts 149°
2026-04-21 22:33 68.40920 -122.34647 24956 ft 444 kts 149°